Orbital Elements at Epoch 2459200.5 (2020-Dec-17.0) TDB
Reference: JPL 18 (heliocentric ecliptic J2000)
Element | Value | Uncertainty (1-sigma) | Units |
e | .1043139225380567 | 5.4242e-08 | |
a | 2.709555104431556 | 1.9283e-08 | au |
q | 2.426910783155286 | 1.5615e-07 | au |
i | 8.546056613478365 | 5.3333e-06 | deg |
node | 261.0650885715783 | 3.6057e-05 | deg |
peri | 81.7977109372608 | 4.4811e-05 | deg |
M | 328.4967006301164 | 2.7026e-05 | deg |
tp | 2459343.060414005925 (2021-May-08.56041401) | 0.00012292 | TDB |
period | 1629.091240239912 4.46 | 1.7391e-05 4.761e-08 | d yr |
n | .2209820979376107 | 2.359e-09 | deg/d |
Q | 2.992199425707825 | 2.1295e-08 | au |
|
| | Orbit Determination Parameters
Additional Information
|